VA3XLC Weather Reports


time (UTC)temp
C
wind
direction
speed
KPH
gust
KPH
rain 1hr
cm
rain 24hr
cm
rain mn
cm
humidity
%
barometer
mb
20260503011442 2 0 0.0 0.0 0.00 0.00 0.00 48 982.6
20260503010942 3 0 0.0 0.0 0.00 0.00 0.00 47 982.6
20260503010441 3 219 3.2 3.2 0.00 0.00 0.00 47 982.6
20260503005940 3 229 1.6 3.2 0.00 0.00 0.00 44 982.5
20260503004918 4 0 0.0 0.0 0.00 0.00 0.00 42 982.4
20260503002814 5 341 4.8 8.0 0.00 0.00 0.00 36 982.3
20260503002313 5 342 4.8 11.3 0.00 0.00 0.00 35 982.2
20260503001812 6 342 6.4 9.7 0.00 0.00 0.00 34 982.2
20260503001312 6 346 9.7 12.9 0.00 0.00 0.00 33 982.2
20260503000812 6 338 4.8 6.4 0.00 0.00 0.00 32 982.2
20260503000311 6 333 6.4 9.7 0.00 0.00 0.00 32 982.2
20260502235811 6 345 6.4 9.7 0.00 0.00 0.00 31 982.2
20260502234749 6 336 3.2 4.8 0.00 0.00 0.00 30 982.2
20260502234248 6 338 6.4 8.0 0.00 0.00 0.00 30 982.2
20260502233748 6 322 6.4 12.9 0.00 0.00 0.00 28 982.1
20260502233248 6 350 8.0 11.3 0.00 0.00 0.00 27 982.1
20260502232748 7 339 8.0 14.5 0.00 0.00 0.00 27 982.1
20260502232248 7 349 11.3 16.1 0.00 0.00 0.00 25 982.1
20260502231748 7 5 6.4 11.3 0.00 0.00 0.00 27 982.1
20260502231247 7 345 9.7 14.5 0.00 0.00 0.00 25 982.1
20260502230746 7 326 11.3 16.1 0.00 0.00 0.00 26 982.1
20260502230246 7 346 8.0 12.9 0.00 0.00 0.00 26 982.1
20260502225746 7 10 8.0 14.5 0.00 0.00 0.00 26 982.2
20260502225245 7 341 6.4 12.9 0.00 0.00 0.00 26 982.2
20260502224745 7 342 14.5 19.3 0.00 0.00 0.00 25 982.2
20260502223724 7 343 8.0 11.3 0.00 0.00 0.00 26 982.2
20260502222702 7 345 8.0 12.9 0.00 0.00 0.00 27 982.2
20260502222202 7 2 8.0 12.9 0.00 0.00 0.00 27 982.2
20260502221140 7 357 8.0 12.9 0.00 0.00 0.00 28 982.3
20260502220640 7 357 6.4 8.0 0.00 0.00 0.00 28 982.2
20260502220140 7 3 6.4 14.5 0.00 0.00 0.00 29 982.2
20260502215640 7 342 6.4 16.1 0.00 0.00 0.00 29 982.2
20260502215140 7 351 12.9 16.1 0.00 0.00 0.00 28 982.2
20260502214639 7 7 8.0 12.9 0.00 0.00 0.00 30 982.2
20260502214139 7 342 14.5 19.3 0.00 0.00 0.00 30 982.2
20260502213639 7 8 6.4 11.3 0.00 0.00 0.00 30 982.2
20260502213139 7 8 11.3 14.5 0.00 0.00 0.00 32 982.2
20260502212638 7 19 6.4 11.3 0.00 0.00 0.00 31 982.2
20260502212138 6 310 6.4 9.7 0.00 0.00 0.00 32 982.2
20260502211638 6 344 9.7 12.9 0.00 0.00 0.00 35 982.2
20260502211138 6 0 9.7 14.5 0.00 0.00 0.00 34 982.2
20260502210637 6 351 9.7 17.7 0.00 0.00 0.00 35 982.2
20260502210137 6 0 9.7 14.5 0.00 0.00 0.00 36 982.1
20260502204555 6 331 12.9 16.1 0.00 0.00 0.00 34 982.2
20260502204054 6 345 9.7 16.1 0.00 0.00 0.00 34 982.3
20260502203554 6 19 8.0 14.5 0.00 0.00 0.00 35 982.3
20260502203054 6 354 9.7 17.7 0.00 0.00 0.00 35 982.3
20260502202554 6 9 8.0 14.5 0.00 0.00 0.00 35 982.4
20260502202054 6 329 6.4 9.7 0.00 0.00 0.00 37 982.4
20260502201553 6 343 9.7 16.1 0.00 0.00 0.00 36 982.5
20260502201052 6 346 12.9 16.1 0.00 0.00 0.00 38 982.5
20260502200552 6 355 8.0 12.9 0.00 0.00 0.00 38 982.6
20260502200052 6 326 9.7 14.5 0.00 0.00 0.00 40 982.6
20260502195552 6 336 11.3 16.1 0.00 0.00 0.00 40 982.7
20260502195051 6 343 11.3 16.1 0.00 0.00 0.00 40 982.7
20260502194550 6 352 6.4 9.7 0.00 0.00 0.00 43 982.7
20260502194050 6 332 6.4 9.7 0.00 0.00 0.00 43 982.9
20260502193550 6 17 6.4 9.7 0.00 0.00 0.00 43 982.9
20260502193049 5 315 8.0 11.3 0.00 0.00 0.00 43 983.0
20260502192027 6 10 8.0 12.9 0.00 0.00 0.00 43 983.0
20260502191526 5 320 8.0 12.9 0.00 0.00 0.00 45 983.0
20260502191025 5 321 8.0 11.3 0.00 0.00 0.00 44 983.1
20260502190525 6 328 11.3 14.5 0.00 0.00 0.00 45 983.1
20260502190025 6 344 8.0 11.3 0.00 0.00 0.00 45 983.1
20260502185525 6 350 9.7 16.1 0.00 0.00 0.00 46 983.1
20260502185025 5 348 4.8 8.0 0.00 0.00 0.00 45 983.1
20260502184524 5 300 8.0 17.7 0.00 0.00 0.00 47 983.1
20260502184023 5 337 9.7 11.3 0.00 0.00 0.00 46 983.1
20260502183523 6 347 12.9 17.7 0.00 0.00 0.00 46 983.1
20260502182502 5 11 8.0 12.9 0.00 0.00 0.00 46 983.1
20260502182001 5 314 4.8 11.3 0.00 0.00 0.00 47 983.1
20260502181501 5 341 9.7 12.9 0.00 0.00 0.00 47 983.2
20260502181001 5 309 6.4 9.7 0.00 0.00 0.00 47 983.2
20260502170414 5 339 9.7 14.5 0.00 0.00 0.00 50 983.2
20260502163912 5 339 9.7 14.5 0.00 0.00 0.00 48 983.1
20260502163411 5 327 11.3 14.5 0.00 0.00 0.00 48 983.1
20260502162911 5 303 11.3 14.5 0.00 0.00 0.00 46 983.1
20260502162411 5 349 6.4 9.7 0.00 0.00 0.00 48 983.1
20260502160828 5 23 9.7 14.5 0.00 0.00 0.00 52 983.3
20260502160327 5 331 11.3 16.1 0.00 0.00 0.00 52 983.3
20260502151722 4 348 8.0 14.5 0.00 0.00 0.00 51 983.3
20260502151221 4 3 8.0 12.9 0.00 0.00 0.00 52 983.2
20260502150721 4 352 8.0 9.7 0.00 0.00 0.00 51 983.2
20260502150221 4 4 11.3 14.5 0.00 0.00 0.00 51 983.2
20260502130549 3 20 8.0 17.7 0.00 0.00 0.00 63 983.6
20260502123548 2 335 6.4 11.3 0.00 0.00 0.00 67 983.7
20260502123048 2 338 11.3 17.7 0.00 0.00 0.00 67 983.7
20260502122547 2 358 6.4 9.7 0.00 0.00 0.00 68 983.7
20260502122046 2 341 6.4 9.7 0.00 0.00 0.00 68 983.6
20260502121546 2 313 8.0 11.3 0.00 0.00 0.00 69 983.6
20260502114940 2 319 8.0 11.3 0.00 0.00 0.00 71 983.7
20260502114440 2 351 4.8 6.4 0.00 0.00 0.00 72 983.7
20260502113940 1 316 3.2 6.4 0.00 0.00 0.00 73 983.7
20260502112919 1 331 6.4 8.0 0.00 0.00 0.00 74 983.7
20260502112418 1 333 4.8 6.4 0.00 0.00 0.00 74 983.6
20260502111918 1 301 3.2 4.8 0.00 0.00 0.00 74 983.6
20260502110856 1 337 6.4 9.7 0.00 0.00 0.00 74 983.5
20260502110355 1 300 4.8 4.8 0.00 0.00 0.00 74 983.5
20260502105855 1 289 4.8 6.4 0.00 0.00 0.00 75 983.5
20260502105354 1 317 1.6 3.2 0.00 0.00 0.00 74 983.4
20260502104854 1 293 3.2 4.8 0.00 0.00 0.00 75 983.4
20260502104354 1 312 3.2 6.4 0.00 0.00 0.00 74 983.3
20260502103854 1 299 3.2 4.8 0.00 0.00 0.00 74 983.3
20260502103353 1 313 3.2 6.4 0.00 0.00 0.00 74 983.3
20260502102852 1 323 4.8 6.4 0.00 0.00 0.00 74 983.3
20260502102352 1 289 1.6 3.2 0.00 0.00 0.00 74 983.3
20260502101851 1 313 3.2 6.4 0.00 0.00 0.00 74 983.4
20260502101351 1 289 3.2 4.8 0.00 0.00 0.00 74 983.4
20260502100330 1 270 6.4 8.0 0.00 0.00 0.00 74 983.3
20260502091244 1 285 3.2 4.8 0.00 0.00 0.00 74 982.9
20260502090744 1 311 4.8 6.4 0.00 0.00 0.00 74 982.9
20260502090244 1 268 4.8 8.0 0.00 0.00 0.00 74 982.9
20260502071120 1 330 4.8 6.4 0.00 0.00 0.00 77 982.6
20260502070059 2 292 3.2 4.8 0.00 0.00 0.00 76 982.8
20260502065558 2 303 3.2 4.8 0.00 0.00 0.00 76 982.9
20260502064537 2 275 3.2 4.8 0.00 0.00 0.00 75 982.9
20260502064037 1 274 6.4 9.7 0.00 0.00 0.00 74 982.9
20260502063536 1 262 4.8 6.4 0.00 0.00 0.00 74 982.9
20260502063036 1 278 3.2 8.0 0.00 0.00 0.00 74 982.9
20260502062536 1 277 4.8 4.8 0.00 0.00 0.00 74 982.9
20260502062036 1 289 4.8 6.4 0.00 0.00 0.00 74 983.0
20260502061536 1 266 4.8 6.4 0.00 0.00 0.00 73 983.0
20260502061035 1 246 4.8 6.4 0.00 0.00 0.00 73 982.8
20260502060535 1 281 4.8 4.8 0.00 0.00 0.00 73 982.8
20260502060035 1 316 3.2 4.8 0.00 0.00 0.00 72 982.8
20260502055534 1 342 4.8 8.0 0.00 0.00 0.00 72 983.0
20260502054513 1 283 6.4 9.7 0.00 0.00 0.00 72 983.1
20260502053451 1 328 1.6 3.2 0.00 0.00 0.00 71 983.1
20260502052429 1 301 4.8 4.8 0.00 0.00 0.00 70 983.2
20260502051929 1 263 3.2 4.8 0.00 0.00 0.00 70 983.2
20260502051429 1 263 4.8 8.0 0.00 0.00 0.00 70 983.2
20260502050929 1 272 6.4 9.7 0.00 0.00 0.00 70 983.1
20260502050428 1 290 1.6 3.2 0.00 0.00 0.00 70 982.8
20260502045406 1 275 3.2 4.8 0.00 0.00 0.00 70 983.1
20260502044906 1 280 4.8 8.0 0.00 0.00 0.00 69 983.0
20260502044406 1 261 4.8 4.8 0.00 0.00 0.00 69 983.0
20260502043905 1 294 4.8 8.0 0.00 0.00 0.00 69 983.0
20260502042322 1 315 3.2 4.8 0.00 0.00 0.00 69 983.0
20260502040739 1 319 4.8 6.4 0.00 0.00 0.00 66 982.8
20260502040239 1 317 6.4 8.0 0.00 0.00 0.00 66 982.8
20260502035739 1 298 4.8 4.8 0.00 0.00 0.00 65 982.7
20260502035239 1 328 1.6 4.8 0.00 0.00 0.00 64 982.6
20260502034217 1 330 3.2 4.8 0.00 0.00 0.00 63 982.8
20260502033716 1 339 4.8 8.0 0.00 0.00 0.00 63 982.9
20260502033216 1 330 4.8 4.8 0.00 0.00 0.00 63 982.8
20260502032716 1 321 4.8 8.0 0.00 0.00 0.00 62 982.8
20260502032215 1 317 4.8 4.8 0.00 0.00 0.00 63 982.8
20260502031714 1 289 1.6 3.2 0.00 0.00 0.00 63 982.9
20260502031214 1 305 4.8 6.4 0.00 0.00 0.00 64 982.8
20260502030152 1 287 3.2 4.8 0.00 0.00 0.00 63 982.7
20260502025652 1 276 3.2 4.8 0.00 0.00 0.00 64 982.7
20260502025152 1 287 4.8 6.4 0.00 0.00 0.00 63 982.6
20260502024650 1 287 4.8 4.8 0.00 0.00 0.00 63 982.6
20260502024150 1 291 3.2 3.2 0.00 0.00 0.00 63 982.5
20260502023129 1 303 3.2 6.4 0.00 0.00 0.00 61 982.6
20260502022628 1 295 3.2 4.8 0.00 0.00 0.00 61 982.6
20260502022128 2 282 4.8 4.8 0.00 0.00 0.00 60 982.6
20260502021627 2 280 4.8 6.4 0.00 0.00 0.00 60 982.6
20260502021127 2 279 3.2 4.8 0.00 0.00 0.00 59 982.5
20260502015544 2 303 1.6 3.2 0.00 0.00 0.00 59 982.4
20260502014522 2 296 1.6 3.2 0.00 0.00 0.00 57 982.3
20260502014021 2 314 1.6 3.2 0.00 0.00 0.00 56 982.3
20260502013520 2 289 3.2 6.4 0.00 0.00 0.00 54 982.2
20260502013020 2 302 3.2 8.0 0.00 0.00 0.00 54 982.1
20260502012520 2 348 3.2 6.4 0.00 0.00 0.00 54 982.0
20260502012020 3 325 3.2 4.8 0.00 0.00 0.00 53 982.0